Regional & State Weather Roundups


412 
ASUS43 KMKX 220300
RWRWI 
WISCONSIN REGIONAL WEATHER ROUNDUP
NATIONAL WEATHER SERVICE MILWAUKEE/SULLIVAN WI
1000 PM CDT TUE MAY 21 2019
NOTE: "FAIR" INDICATES FEW OR NO CLOUDS BELOW 12,000 FEET WITH NO
SIGNIFICANT WEATHER AND/OR OBSTRUCTIONS TO VISIBILITY.
WIZ001-002-006>008-014>016-023>028-220400-
NORTHWEST WISCONSIN
  
CITY           SKY/WX    TMP DP  RH WIND       PRES   REMARKS
SUPERIOR ARPT  CLOUDY    43  36  76 NE10      29.98R                  
ASHLAND        CLOUDY    52  36  54 E5        29.99R                  
HAYWARD        LGT RAIN  53  38  56 E9G18     29.97R                  
SIREN          NOT AVBL                                               
CUMBERLAND     RAIN      46  37  71 E12G23    29.92S                  
RICE LAKE      LGT RAIN  49  44  81 E12G22    29.95S                  
CHETEK         LGT RAIN  48  43  82 E15G23    29.93F                  
LADYSMITH      LGT RAIN  50  42  72 E8        29.99R                  
EAU CLAIRE     NOT AVBL                                               
MENOMONIE      LGT RAIN  45  41  88 NE20G26   29.88F                  
NEW RICHMOND   MIX PCPN  46  42  84 E20G26    29.85F                  
OSCEOLA        CLOUDY    47  43  85 E18G25    29.94R                  
$$
 
WIZ003>005-009-010-017-018-220400-
NORTH CENTRAL WISCONSIN
  
CITY           SKY/WX    TMP DP  RH WIND       PRES   REMARKS
MANITOWISH WTR DRIZZLE   53  32  45 SE12      30.01R                  
ARBOR VITAE    LGT RAIN  57  34  41 SE14G20   30.01F                  
WOODRUFF       LGT RAIN  57  34  41 SE14G20   30.01F                  
RHINELANDER    LGT RAIN  50  36  58 E9        30.01F                  
EAGLE RIVER    LGT RAIN  53  28  37 SE15      30.03F                  
LAND O LAKES   CLOUDY    55  28  34 SE13G22   30.05F                  
PHILLIPS       LGT RAIN  48  39  71 E7        29.97F                  
TOMAHAWK       LGT RAIN  46  40  78 E5        30.00S                  
MEDFORD        DRIZZLE   46  40  78 E15G22    29.93F                  
MERRILL        CLOUDY    52  35  51 E14G20    29.97F                  
$$
 
WIZ029-030-035-036-043>047-220400-
CENTRAL WISCONSIN
  
CITY           SKY/WX    TMP DP  RH WIND       PRES   REMARKS
WAUSAU         CLOUDY    52  34  50 E15G24    29.95F                  
MOSINEE        CLOUDY    52  36  54 E16G25    29.97F                  
MARSHFIELD     CLOUDY    51  38  60 E20G28    29.92R                  
STEVENS POINT  CLOUDY    51  36  55 E16G22    29.97S                  
WAUPACA        CLOUDY    55  37  50 E10G16    29.99F                  
WAUTOMA        CLOUDY    54  38  54 E16       29.96F                  
WISC RAPIDS    CLOUDY    54  36  50 E18G29    29.93F                  
CAMP DOUGLAS   NOT AVBL                                               
$$
 
WIZ011>013-019>022-031-037>040-048>050-220400-
NORTHEAST WISCONSIN
  
CITY           SKY/WX    TMP DP  RH WIND       PRES   REMARKS
ANTIGO         CLOUDY    51  33  50 E15       30.02F                  
SHAWANO        CLOUDY    56  38  51 E9        30.03F                  
OCONTO         CLOUDY    54  36  51 E9        30.05F                  
STURGEON BAY   MOCLDY    52  36  54 E10       30.05F                  
GREEN BAY      CLOUDY    54  38  54 E9        30.03F                  
MANITOWOC      MOCLDY    50  39  66 E5        30.03                   
APPLETON       CLOUDY    52  34  50 E10       29.99F                  
CLINTONVILLE   DRIZZLE   54  36  51 E9        30.01F                  
OSHKOSH        CLOUDY    53  39  59 E14G23    29.97F                  
$$
 
WIZ032>034-041-042-053>061-220400-
SOUTHWEST WISCONSIN
  
CITY           SKY/WX    TMP DP  RH WIND       PRES   REMARKS
LA CROSSE      LGT RAIN  50  43  77 SE3       29.83R                  
SPARTA         CLOUDY    52  40  62 E23G36    29.82F                  
VIROQUA        CLOUDY    47  44  90 E21G30    29.81R                  
BOSCOBEL       HVY RAIN  50  43  77 VRB3      29.83R                  
PRAIRIE DU CHI LGT RAIN  48  43  84 E14G21    29.77F                  
PLATTEVILLE    CLOUDY    49  46  92 S18       29.92R                  
$$
WIZ056-057-062-063-064-067-068-220400-
SOUTH CENTRAL WISCONSIN
  
CITY           SKY/WX    TMP DP  RH WIND       PRES   REMARKS
REEDSBURG      CLOUDY    51  39  63 E15G21    29.85F                  
BARABOO/DELLS  CLOUDY    52  37  57 E22G30    29.86F                  
LONE ROCK      NOT AVBL                                               
MINERAL POINT  HVY RAIN  46  46 100 E12G22    29.82R                  
MADISON        CLOUDY    54  38  54 E21G37    29.87F                  
MIDDLETON      CLOUDY    55  40  57 E23G31    29.87F                  
WATERTOWN      MOCLDY    52  41  65 E14G28    29.92F                  
MONROE         CLOUDY    52  39  61 E22G31    29.82F                  
JANESVILLE     CLOUDY    54  39  58 E24G32    29.87R                  
$$
 
WIZ051-052-058>065-066-070>072-220400-
SOUTHEAST WISCONSIN
  
CITY           SKY/WX    TMP DP  RH WIND       PRES   REMARKS
MILWAUKEE      CLOUDY    50  40  68 E21G29    29.98F                  
WAUKESHA       CLOUDY    48  37  66 E14G20    29.97F                  
MILWAUKEE/TIMM CLOUDY    50  36  57 E12       29.99F                  
RACINE         CLOUDY    50  40  68 SE17G28   29.99F                  
KENOSHA        CLOUDY    52  40  63 E21G30    29.97S                  
FOND DU LAC    CLOUDY    53  38  56 E12G21    29.97F                  
SHEBOYGAN      MOCLDY    48  37  65 E8        30.01F                  
WEST BEND      CLOUDY    52  36  54 E12       29.99F                  
JUNEAU         CLOUDY    53  39  59 E18G33    29.94F                  
$$
LSZ147-162-220400-
LAKE SUPERIOR
  
STATION/POSITION TIME  TEMP    WIND        PRES    WAVE
                       AIR SEA DIR/SP/G            HT/PER
                 (UTC) (F)     (DEG/KT/KT) (MB)    (FT/S)
W MID LAKE BUOY  0150   43 36   80/ 16/ 17 1018.1F   2/ 4
$$
 
LMZ867-665-643>646-220400-
LAKE MICHIGAN
  
STATION/POSITION TIME  TEMP    WIND        PRES    WAVE
                       AIR SEA DIR/SP/G            HT/PER
                 (UTC) (F)     (DEG/KT/KT) (MB)    (FT/S)
N MID LAKE BUOY  0230   44 37   70/ 12/ 16 1019.0R
NORTHPORT PIER   0240   50      80/  7/  9 1018.6S
KEWAUNEE LAKESHO 0230   46      70/ 10/ 13 1016.5F
SHEBOYGAN LAKESH 0200   44      70/ 11/ 12 1017.0F
MILWAUKEE LAKESH 0230   46      90/  7/  8   N/A
S MID LAKE BUOY  0240   44 39  100/ 14/ 16 1016.2F
KENOSHA   LAKESH 0200   48     120/ 18/ 21 1015.2
$$
TC  - TEMPERATURE IN CELSIUS
VSB - VISIBILITY IN STATUTE MILES
WCI - WIND CHILL INDEX
HX  - HEAT INDEX